Simultaneous Nadir Overpasses (SNOs) Predictions

Prediction of SNOs between AQUA and METOP-B Satellite Orbit:

Table of predicted SNOs for the next 14.0 days since TLE Epoch: 1/13/2024
Index Date (AQUA) Time (AQUA) Lat,Lon (AQUA) SZA (AQUA ) Date (METOP-B) Time (METOP-B) Lat,Lon (METOP-B) SZA (METOP-B ) Distance(km) Time Diff (sec)
1 01/13/2024 15:15:41 75.21, -52.27 96.68 01/13/2024 15:15:03 75.23, -52.16 96.70 3.53 38
2 01/13/2024 16:05:04 -75.25, 115.29 83.29 01/13/2024 16:05:44 -75.26, 115.26 83.28 1.49 40
3 01/16/2024 07:27:48 75.18, 64.82 96.18 01/16/2024 07:26:48 75.21, 64.85 96.22 3.63 60
4 01/16/2024 08:17:12 -75.27,-127.75 83.74 01/16/2024 08:17:29 -75.25,-127.72 83.76 2.10 17
5 01/18/2024 23:39:50 74.92,-177.47 95.38 01/18/2024 23:38:41 74.85,-179.13 95.36 48.79 69
6 01/19/2024 00:29:19 -75.26, -10.72 84.27 01/19/2024 00:29:15 -75.23, -10.74 84.30 3.46 4
7 01/19/2024 01:18:44 75.31, 156.79 95.78 01/19/2024 01:19:53 75.32, 156.87 95.78 2.43 69
8 01/21/2024 16:41:24 -75.23, 106.38 84.88 01/21/2024 16:41:00 -75.24, 106.35 84.86 1.89 24
9 01/21/2024 17:30:49 75.28, -86.11 95.18 01/21/2024 17:31:39 75.28, -86.20 95.18 2.54 50
10 01/24/2024 08:53:28 -75.22,-136.57 85.50 01/24/2024 08:52:45 -75.25,-136.59 85.47 2.89 43
11 01/24/2024 09:42:52 75.27, 30.93 94.56 01/24/2024 09:43:23 75.28, 30.85 94.56 2.45 31
12 01/27/2024 01:05:30 -75.24, -19.59 86.14 01/27/2024 01:04:29 -75.24, -19.57 86.13 0.58 61
13 01/27/2024 01:54:55 75.29, 147.90 93.92 01/27/2024 01:55:08 75.27, 147.86 93.90 3.23 13



Historial Predications of SNOs between AQUA and METOP-B
